Location: Earls Croome
(52.0667°N, 2.2000°W)
Time: 09:44:46
(UTC+00:00)

COSMOS 2455 - Pass Details

Date: 26 February 2020
Orbit: 901 x 909 km, 67.2° (Epoch: 07 April)

Event Time Altitude Azimuth Distance (km) Brightness Sun altitude
Exits shadow 01:57:48 19° 7° (N) 2,034 5.1 -42.7°
Drops below altitude 10° 02:01:30 10° 45° (NE) 2,601 5.8 -42.3°
Sets 02:04:50 0° 63° (ENE) 3,543 6.6 -42.1°
